This is the latest recevied weather packets stored in our database for station/object KH6HHG. If no packets are shown the sender has not sent any weather packets the latest 10 day(s).
| Time | Temp. | Humidity | Pressure | Rain* | Wind** | Luminosity | Snow |
|---|---|---|---|---|---|---|---|
| 1778014298 | 25° C | 73% | 1013.3 hPa | 0 mm | - | - | - |
| 1778013998 | 25.56° C | 73% | 1013.3 hPa | 0 mm | - | - | - |
| 1778013698 | 26.11° C | 70% | 1013.3 hPa | 0 mm | - | - | - |
| 1778013398 | 26.11° C | 70% | 1013.4 hPa | 0 mm | - | - | - |
| 1778013098 | 26.11° C | 74% | 1013.4 hPa | 0 mm | - | - | - |
| 1778012798 | 25.56° C | 74% | 1013.4 hPa | 0 mm | - | - | - |
| 1778012498 | 25° C | 73% | 1013.5 hPa | 0 mm | - | - | - |
| 1778012198 | 25.56° C | 72% | 1013.4 hPa | 0 mm | - | - | - |
| 1778011898 | 25° C | 73% | 1013.4 hPa | 0 mm | - | - | - |
| 1778011598 | 24.44° C | 74% | 1013.4 hPa | 0 mm | - | - | - |
| 1778011298 | 24.44° C | 72% | 1013.5 hPa | 0 mm | - | - | - |
| 1778010998 | 25° C | 72% | 1013.5 hPa | 0 mm | - | - | - |
| 1778010698 | 25.56° C | 72% | 1013.5 hPa | 0 mm | - | - | - |
| 1778010398 | 25° C | 75% | 1013.4 hPa | 0 mm | - | - | - |
| 1778010098 | 24.44° C | 77% | 1013.5 hPa | 0 mm | - | - | - |
| 1778009798 | 23.89° C | 77% | 1013.5 hPa | 0 mm | - | - | - |
| 1778009498 | 24.44° C | 75% | 1013.5 hPa | 0 mm | - | - | - |
| 1778009198 | 24.44° C | 74% | 1013.5 hPa | 0 mm | - | - | - |
| 1778008898 | 25° C | 76% | 1013.5 hPa | 0 mm | - | - | - |
| 1778008598 | 24.44° C | 74% | 1013.5 hPa | 0 mm | - | - | - |
| 1778008298 | 23.89° C | 76% | 1013.5 hPa | 0 mm | - | - | - |
| 1778007998 | 23.89° C | 78% | 1013.5 hPa | 0 mm | - | - | - |
| 1778007699 | 23.33° C | 80% | 1013.5 hPa | 0 mm | - | - | - |
| 1778007399 | 22.78° C | 81% | 1013.5 hPa | 0 mm | - | - | - |
| 1778007099 | 22.78° C | 81% | 1013.4 hPa | 0 mm | - | - | - |
* Rain latest hour (hover to see other rain measurements)
** Current wind speed in m/s (hover to see current wind gust speed)